Weather History for New Roads False River Regiona, LA

Change the Weather History Date:

Monday, May 19, 2014

  Actual Average (KBTR) Record (KBTR)
Temperature  
Mean Temperature 72 °F 76 °F  
Max Temperature 85 °F 87 °F 96 °F (1956)
Min Temperature 60 °F 66 °F 49 °F (2002)
Degree Days  
Heating Degree Days 0 0  
Month to date heating degree days 0  
Since 1 July heating degree days 1553  
Cooling Degree Days 8 12  
Month to date cooling degree days 179  
Year to date cooling degree days 410  
Growing Degree Days 22 (Base 50)    
Moisture  
Dew Point 60 °F    
Average Humidity 65    
Maximum Humidity 99    
Minimum Humidity 30    
Precipitation  
Precipitation 0.00 in 0.14 in 3.60 in (1930)
Month to date precipitation 2.91  
Year to date precipitation 22.54  
Snow  
Snow 0.00 in - - ()
Month to date snowfall  
Since 1 July snowfall  
Snow Depth -    
Sea Level Pressure  
Sea Level Pressure 30.13 in    
Wind  
Wind Speed 3 mph (SSE)    
Max Wind Speed 13 mph    
Max Gust Speed 17 mph    
Visibility 9 miles    
Events      
T = Trace of Precipitation, MM = Missing Value Source: NWS Daily Summary

Daily Weather History Graph

Daily Weather History Graph

Search for Another Location

Airport:

Trip Planner

Search our weather history database for the weather conditions in past years. The results will help you decide how hot, cold, wet, or windy it might be!

Date:

Astronomy

May. 19, 2014 Rise Set
Actual Time 6:08 AM CDT 7:56 PM CDT
Civil Twilight 5:42 AM CDT 8:23 PM CDT
Nautical Twilight 5:10 AM CDT 8:55 PM CDT
Astronomical Twilight 4:36 AM CDT 9:29 PM CDT
Moon No Moon Rise 11:00 AM CDT (5/19)
Length of Visible Light 14h 40m
Length of Day
13h 47m
Waning Gibbous, 71% of the Moon is Illuminated
May 19
Waning Gibbous
May 21
Last Quarter
May 28
New
Jun 5
First Quarter
Jun 12
Full

Hourly Weather History & Observations

Time (CDT) Temp. Heat Index Dew Point Humidity Pressure Visibility Wind Dir Wind Speed Gust Speed Precip Events Conditions
12:15 AM 69.1 °F - 63.1 °F 81% 30.14 in 10.0 mi Calm Calm - N/A   Clear
12:35 AM 68.7 °F - 63.1 °F 82% 30.14 in 10.0 mi Calm Calm - N/A   Clear
12:55 AM 68.0 °F - 63.1 °F 84% 30.14 in 10.0 mi Calm Calm - N/A   Clear
1:15 AM 66.9 °F - 63.5 °F 89% 30.13 in 10.0 mi Calm Calm - N/A   Clear
1:35 AM 66.7 °F - 63.0 °F 88% 30.13 in 10.0 mi Calm Calm - N/A   Clear
1:55 AM 65.5 °F - 63.5 °F 93% 30.12 in 10.0 mi Calm Calm - N/A   Clear
2:15 AM 64.4 °F - 62.6 °F 94% 30.12 in 7.0 mi Calm Calm - N/A   Clear
2:35 AM 63.5 °F - 62.4 °F 96% 30.12 in 7.0 mi Calm Calm - N/A   Clear
2:55 AM 63.5 °F - 62.8 °F 97% 30.12 in 5.0 mi Calm Calm - N/A   Clear
3:15 AM 63.1 °F - 62.6 °F 98% 30.13 in 4.0 mi Calm Calm - N/A   Clear
3:35 AM 63.0 °F - 62.6 °F 99% 30.13 in 2.5 mi Calm Calm - N/A   Clear
3:55 AM 62.4 °F - 61.9 °F 98% 30.13 in 2.0 mi Calm Calm - N/A   Clear
4:15 AM 62.4 °F - 61.7 °F 97% 30.13 in 5.0 mi Calm Calm - N/A   Clear
4:35 AM 61.7 °F - 61.2 °F 98% 30.13 in 3.0 mi Calm Calm - N/A   Clear
4:55 AM 61.0 °F - 60.8 °F 99% 30.13 in 2.5 mi Calm Calm - N/A   Clear
5:15 AM 61.0 °F - 60.4 °F 98% 30.12 in 3.0 mi Calm Calm - N/A   Scattered Clouds
5:35 AM 60.8 °F - 60.4 °F 99% 30.12 in 4.0 mi ESE 3.5 mph - N/A   Scattered Clouds
5:55 AM 61.9 °F - 61.3 °F 98% 30.13 in 7.0 mi East 4.6 mph - N/A   Clear
6:15 AM 62.4 °F - 61.9 °F 98% 30.13 in 7.0 mi Calm Calm - N/A   Scattered Clouds
6:35 AM 62.4 °F - 61.7 °F 97% 30.13 in 7.0 mi East 3.5 mph - N/A   Scattered Clouds
6:55 AM 63.1 °F - 62.2 °F 97% 30.13 in 5.0 mi Calm Calm - N/A   Clear
7:15 AM 64.4 °F - 63.7 °F 98% 30.14 in 4.0 mi Calm Calm - N/A   Clear
7:35 AM 65.7 °F - 64.4 °F 96% 30.14 in 5.0 mi East 4.6 mph - N/A   Scattered Clouds
9:35 AM 74.5 °F - 66.6 °F 76% 30.16 in 10.0 mi SSE 8.1 mph - N/A   Scattered Clouds
9:55 AM 75.4 °F - 65.7 °F 72% 30.16 in 10.0 mi SSE 8.1 mph - N/A   Scattered Clouds
10:15 AM 76.8 °F - 64.9 °F 67% 30.16 in 10.0 mi SSE 8.1 mph - N/A   Clear
10:35 AM 77.4 °F - 64.4 °F 64% 30.16 in 10.0 mi SSE 8.1 mph - N/A   Scattered Clouds
10:55 AM 78.8 °F - 64.2 °F 61% 30.17 in 10.0 mi SE 6.9 mph - N/A   Clear
11:15 AM 79.5 °F - 62.8 °F 56% 30.16 in 10.0 mi South 6.9 mph - N/A   Scattered Clouds
11:35 AM 80.4 °F 81.3 °F 61.0 °F 51% 30.16 in 10.0 mi SSE 8.1 mph - N/A   Scattered Clouds
11:55 AM 81.5 °F 81.7 °F 59.0 °F 46% 30.16 in 10.0 mi SSE 6.9 mph - N/A   Clear
12:15 PM 81.5 °F 81.6 °F 58.3 °F 45% 30.15 in 10.0 mi SSE 6.9 mph 17.3 mph N/A   Clear
12:35 PM 82.0 °F 81.8 °F 57.6 °F 43% 30.15 in 10.0 mi SE 8.1 mph - N/A   Clear
12:55 PM 82.4 °F 81.8 °F 56.1 °F 40% 30.15 in 10.0 mi South 11.5 mph - N/A   Clear
1:15 PM 82.8 °F 82.5 °F 58.3 °F 43% 30.14 in 10.0 mi SSW 6.9 mph - N/A   Clear
1:35 PM 83.5 °F 83.2 °F 58.6 °F 43% 30.14 in 10.0 mi SE 8.1 mph - N/A   Clear
1:55 PM 83.7 °F 82.8 °F 56.1 °F 39% 30.14 in 10.0 mi SE 9.2 mph 17.3 mph N/A   Clear
2:15 PM 84.4 °F 83.4 °F 56.1 °F 38% 30.13 in 10.0 mi South 5.8 mph - N/A   Clear
2:35 PM 83.8 °F 82.7 °F 55.2 °F 37% 30.13 in 10.0 mi SSE 8.1 mph - N/A   Clear
2:55 PM 84.9 °F - 50.4 °F 30% 30.13 in 10.0 mi South 10.4 mph - N/A   Clear
3:15 PM 85.3 °F - 50.7 °F 30% 30.11 in 10.0 mi SSE 10.4 mph 17.3 mph N/A   Clear
3:35 PM 84.7 °F - 51.6 °F 32% 30.11 in 10.0 mi SSE 12.7 mph - N/A   Clear
3:55 PM 85.3 °F - 52.3 °F 32% 30.11 in 10.0 mi South 9.2 mph - N/A   Clear
4:15 PM 85.1 °F - 52.0 °F 32% 30.10 in 10.0 mi South 9.2 mph - N/A   Clear
4:35 PM 85.1 °F - 52.9 °F 33% 30.10 in 10.0 mi South 10.4 mph 16.1 mph N/A   Clear
4:55 PM 85.1 °F 83.5 °F 53.6 °F 34% 30.10 in 10.0 mi South 9.2 mph - N/A   Clear
5:15 PM 84.6 °F 83.0 °F 53.6 °F 34% 30.10 in 10.0 mi South 6.9 mph - N/A   Clear
5:55 PM 84.2 °F 83.0 °F 55.6 °F 37% 30.09 in 10.0 mi South 8.1 mph 16.1 mph N/A   Clear
6:35 PM 83.3 °F 82.6 °F 56.7 °F 40% 30.09 in 10.0 mi SSE 6.9 mph - N/A   Clear
6:55 PM 82.6 °F 82.2 °F 57.2 °F 42% 30.09 in 10.0 mi South 6.9 mph - N/A   Clear
7:15 PM 81.5 °F 81.4 °F 57.2 °F 43% 30.08 in 10.0 mi South 4.6 mph - N/A   Clear
7:35 PM 80.2 °F 80.4 °F 56.5 °F 44% 30.09 in 10.0 mi South 4.6 mph - N/A   Clear
7:55 PM 79.0 °F - 56.8 °F 46% 30.09 in 10.0 mi SSE 4.6 mph - N/A   Clear
8:15 PM 77.9 °F - 57.9 °F 50% 30.10 in 10.0 mi SSE 5.8 mph - N/A   Clear
8:35 PM 77.4 °F - 57.2 °F 50% 30.11 in 10.0 mi SSE 6.9 mph - N/A   Clear
8:55 PM 76.6 °F - 57.6 °F 52% 30.11 in 10.0 mi SSE 5.8 mph - N/A   Clear
9:15 PM 75.4 °F - 58.6 °F 56% 30.12 in 10.0 mi SSE 8.1 mph - N/A   Clear
9:35 PM 74.7 °F - 59.7 °F 60% 30.13 in 10.0 mi SSE 6.9 mph - N/A   Clear
9:55 PM 73.6 °F - 60.1 °F 63% 30.13 in 10.0 mi SSE 4.6 mph - N/A   Clear
10:15 PM 72.7 °F - 59.9 °F 64% 30.13 in 10.0 mi SSE 5.8 mph - N/A   Clear
10:35 PM 72.0 °F - 60.1 °F 66% 30.14 in 10.0 mi SE 5.8 mph - N/A   Clear
10:55 PM 71.2 °F - 60.6 °F 69% 30.14 in 10.0 mi SSE 5.8 mph - N/A   Clear
11:15 PM 70.9 °F - 60.8 °F 70% 30.13 in 10.0 mi South 3.5 mph - N/A   Clear
11:35 PM 70.7 °F - 61.2 °F 72% 30.13 in 10.0 mi South 5.8 mph - N/A   Clear
11:55 PM 69.6 °F - 61.3 °F 75% 30.14 in 10.0 mi SSE 3.5 mph - N/A   Clear